EN

Hourly Weather Bartoszowiny

Today, 24 January, Sunday

Time Temperature Precipitation Wind Pressure Humidity
00:00 +1°C° 0 mm 2 mps 710 mmHg 90%
01:00 -1°C° 0 mm 2 mps 710 mmHg 89%
02:00 -1°C° 0 mm 2 mps 710 mmHg 88%
03:00 -1°C° 0 mm 2 mps 710 mmHg 87%
04:00 -2°C° 0 mm 2 mps 710 mmHg 86%
05:00 -2°C° 0.1 mm 2 mps 710 mmHg 88%
06:00 -2°C° 0.1 mm 2 mps 710 mmHg 90%
07:00 -2°C° 0.1 mm 2 mps 710 mmHg 92%
08:00 -2°C° 0.1 mm 2 mps 710 mmHg 93%
09:00 -2°C° 0.1 mm 2 mps 710 mmHg 94%
10:00 -2°C° 0.1 mm 2 mps 710 mmHg 96%
11:00 -2°C° 0.6 mm 2 mps 710 mmHg 96%
12:00 -2°C° 0.6 mm 2 mps 710 mmHg 96%
13:00 -2°C° 0.6 mm 2 mps 710 mmHg 97%
14:00 -2°C° 0.4 mm 2 mps 710 mmHg 97%
15:00 -2°C° 0.4 mm 2 mps 710 mmHg 97%
16:00 -2°C° 0.4 mm 2 mps 711 mmHg 97%
17:00 -2°C° 0 mm 2 mps 711 mmHg 96%
18:00 -3°C° 0 mm 2 mps 711 mmHg 96%
19:00 -3°C° 0 mm 2 mps 712 mmHg 96%
20:00 -3°C° 0 mm 2 mps 712 mmHg 95%
21:00 -3°C° 0 mm 2 mps 712 mmHg 95%
22:00 -3°C° 0 mm 2 mps 712 mmHg 94%
23:00 -4°C° 0 mm 2 mps 712 mmHg 95%

Tomorrow, 25 January, Monday

Time Temperature Precipitation Wind Pressure Humidity
00:00 -2°C° 0 mm 1 mps 712 mmHg 95%
01:00 -2°C° 0 mm 1 mps 712 mmHg 96%
02:00 -2°C° 0 mm 1 mps 712 mmHg 96%
03:00 -2°C° 0 mm 1 mps 713 mmHg 95%
04:00 -2°C° 0 mm 1 mps 713 mmHg 95%
05:00 -2°C° 0 mm 1 mps 713 mmHg 94%
06:00 -2°C° 0 mm 1 mps 714 mmHg 93%
07:00 -2°C° 0 mm 1 mps 714 mmHg 93%
08:00 -1°C° 0 mm 1 mps 714 mmHg 90%
09:00 -3°C° 0 mm 2 mps 714 mmHg 87%
10:00 -2°C° 0 mm 2 mps 715 mmHg 84%
11:00 -2°C° 0 mm 3 mps 715 mmHg 84%
12:00 -2°C° 0 mm 3 mps 715 mmHg 83%
13:00 -2°C° 0 mm 4 mps 715 mmHg 82%
14:00 -3°C° 0 mm 4 mps 715 mmHg 83%
15:00 -4°C° 0 mm 5 mps 715 mmHg 84%
16:00 -4°C° 0 mm 5 mps 715 mmHg 86%
17:00 -5°C° 0 mm 5 mps 715 mmHg 84%
18:00 -5°C° 0 mm 6 mps 716 mmHg 83%
19:00 -5°C° 0 mm 6 mps 716 mmHg 81%
20:00 -5°C° 0 mm 6 mps 716 mmHg 82%
21:00 -5°C° 0 mm 6 mps 716 mmHg 83%
22:00 -5°C° 0 mm 6 mps 716 mmHg 84%
23:00 -5°C° 0 mm 6 mps 716 mmHg 84%

Day after tomorrow, 26 January, Tuesday

Time Temperature Precipitation Wind Pressure Humidity
00:00 -6°C° 0 mm 7 mps 716 mmHg 83%
01:00 -6°C° 0 mm 7 mps 716 mmHg 83%
02:00 -6°C° 0 mm 7 mps 716 mmHg 83%
03:00 -6°C° 0 mm 7 mps 716 mmHg 82%
04:00 -7°C° 0 mm 7 mps 716 mmHg 82%
05:00 -7°C° 0 mm 7 mps 716 mmHg 82%
06:00 -7°C° 0 mm 7 mps 716 mmHg 83%
07:00 -7°C° 0 mm 8 mps 716 mmHg 83%
08:00 -7°C° 0 mm 8 mps 716 mmHg 83%
09:00 -6°C° 0 mm 8 mps 717 mmHg 83%
10:00 -6°C° 0 mm 8 mps 717 mmHg 83%
11:00 -6°C° 0 mm 8 mps 717 mmHg 82%
12:00 -6°C° 0 mm 8 mps 717 mmHg 81%
13:00 -6°C° 0 mm 8 mps 717 mmHg 79%
14:00 -6°C° 0 mm 7 mps 718 mmHg 80%
15:00 -6°C° 0 mm 7 mps 718 mmHg 81%
16:00 -6°C° 0 mm 7 mps 718 mmHg 81%
17:00 -6°C° 0.1 mm 7 mps 719 mmHg 84%
18:00 -6°C° 0.1 mm 7 mps 719 mmHg 86%
19:00 -6°C° 0.1 mm 7 mps 719 mmHg 88%
20:00 -6°C° 0 mm 7 mps 719 mmHg 86%
21:00 -6°C° 0 mm 7 mps 720 mmHg 84%
22:00 -6°C° 0 mm 7 mps 720 mmHg 81%
23:00 -7°C° 0 mm 7 mps 720 mmHg 81%

27 January, Wednesday

Time Temperature Precipitation Wind Pressure Humidity
00:00 -6°C° 0 mm 6 mps 720 mmHg 80%
01:00 -6°C° 0 mm 6 mps 720 mmHg 80%
02:00 -6°C° 0 mm 6 mps 720 mmHg 81%
03:00 -6°C° 0 mm 6 mps 720 mmHg 81%
04:00 -6°C° 0 mm 5 mps 720 mmHg 82%
05:00 -6°C° 0 mm 5 mps 720 mmHg 83%
06:00 -6°C° 0 mm 5 mps 720 mmHg 83%
07:00 -6°C° 0 mm 5 mps 720 mmHg 84%
08:00 -6°C° 0 mm 5 mps 720 mmHg 83%
09:00 -5°C° 0 mm 4 mps 720 mmHg 82%
10:00 -4°C° 0 mm 4 mps 720 mmHg 81%
11:00 -4°C° 0 mm 4 mps 720 mmHg 79%
12:00 -3°C° 0 mm 4 mps 720 mmHg 76%
13:00 -3°C° 0 mm 4 mps 719 mmHg 74%
14:00 -2°C° 0 mm 3 mps 720 mmHg 76%
15:00 -4°C° 0 mm 3 mps 720 mmHg 79%
16:00 -3°C° 0 mm 2 mps 720 mmHg 82%
17:00 -3°C° 0 mm 2 mps 720 mmHg 84%
18:00 -3°C° 0 mm 2 mps 720 mmHg 87%
19:00 -4°C° 0 mm 2 mps 720 mmHg 89%
20:00 -4°C° 0.2 mm 2 mps 720 mmHg 92%
21:00 -2°C° 0.2 mm 1 mps 720 mmHg 94%
22:00 -2°C° 0.2 mm 1 mps 721 mmHg 97%
23:00 -2°C° 0.1 mm 1 mps 721 mmHg 97%

28 January, Thursday

Time Temperature Precipitation Wind Pressure Humidity
00:00 -2°C° 0.1 mm 1 mps 721 mmHg 97%
01:00 -2°C° 0.1 mm 1 mps 721 mmHg 97%
02:00 -2°C° 0 mm 1 mps 721 mmHg 97%
03:00 -4°C° 0 mm 2 mps 721 mmHg 96%
04:00 -4°C° 0 mm 2 mps 722 mmHg 96%
05:00 -4°C° 0 mm 2 mps 722 mmHg 96%
06:00 -4°C° 0 mm 2 mps 722 mmHg 95%
07:00 -4°C° 0 mm 2 mps 722 mmHg 95%
08:00 -4°C° 0 mm 2 mps 722 mmHg 92%
09:00 -3°C° 0 mm 2 mps 722 mmHg 89%
10:00 -4°C° 0 mm 3 mps 722 mmHg 85%
11:00 -2°C° 0 mm 3 mps 721 mmHg 84%
12:00 -2°C° 0 mm 3 mps 721 mmHg 84%
13:00 -2°C° 0 mm 3 mps 721 mmHg 83%
14:00 -2°C° 0 mm 2 mps 720 mmHg 85%
15:00 -3°C° 0 mm 2 mps 720 mmHg 86%
16:00 -1°C° 0 mm 1 mps 720 mmHg 88%
17:00 -1°C° 0.1 mm 1 mps 719 mmHg 90%
18:00 -3°C° 0.1 mm 2 mps 719 mmHg 93%
19:00 -4°C° 0.1 mm 2 mps 719 mmHg 95%

29 January, Friday

Time Temperature Precipitation Wind Pressure Humidity
Show more

We Need Your Consent

Meteoprog and our Service Providers may store and access personal data such as cookies, device identifiers or other similar technologies on your device and process such data to personalise content and ads, as well as provide social media features and to analyse the traffic.

  • Store and/or access information on your device

    Cookies, device identifiers or other information can be stored or accessed on your device for the purposes indicated above.

  • Personalised ads and content, ad and content measurement, audience insights, and products development

    Ads and content can be personalised based on a profile. More data can be added to better personalise ads and content. Ad and content performance can be measured. Insights about the audience who saw the ads and content can be derived. Such data can be used to develop or improve user’s experience, systems and software.

By clicking ‘I Agree’ you will allow the use of indicated cookies, device identifiers, web beacons or other similar technologies. Your settings can be changed in the browser on your device.

For certain purposes, legitimate interests may be relied on, rather than consent. You can read more about this in our Privacy and Cookie Policy.